GIPSM EINN-EIDL

Flight info

Callsign GIPSM
Flight time 1h 1m
Altitude 5500
Route LOUGHDERG DCT LOUGHREE DCT DONEGAL
Aircraft BE58/L-SDFGRY/C

Departure

Time 2026-04-23 08:00
Airport Shannon Airport (EINN)

Arrival

Time 2026-04-23 09:01
Airport Donegal Airport (EIDL)
Time Latitude Longitude Altitude Speed Heading
2026-04-23 07:52 52.69231 -8.91354 6 ft 0 kts 220°
2026-04-23 07:56 52.69229 -8.91357 6 ft 2 kts 226°
2026-04-23 07:56 52.69242 -8.91424 6 ft 10 kts 296°
2026-04-23 07:57 52.69256 -8.91590 6 ft 15 kts 282°
2026-04-23 07:57 52.69331 -8.91736 8 ft 15 kts 327°
2026-04-23 07:57 52.69429 -8.91845 8 ft 18 kts 296°
2026-04-23 07:57 52.69470 -8.92086 10 ft 20 kts 283°
2026-04-23 07:58 52.69529 -8.92317 10 ft 19 kts 302°
2026-04-23 07:58 52.69635 -8.92512 10 ft 22 kts 316°
2026-04-23 07:58 52.69750 -8.92699 10 ft 24 kts 315°
2026-04-23 07:58 52.69861 -8.92882 11 ft 12 kts 315°
2026-04-23 07:59 52.69881 -8.92914 12 ft 0 kts 317°
2026-04-23 07:59 52.69887 -8.92923 12 ft 4 kts 317°
2026-04-23 07:59 52.69936 -8.92979 13 ft 12 kts 352°
2026-04-23 07:59 52.70022 -8.92849 10 ft 27 kts 52°
2026-04-23 08:00 52.70247 -8.92378 10 ft 82 kts 53°
2026-04-23 08:00 52.70670 -8.91494 152 ft 105 kts 57°
2026-04-23 08:00 52.71087 -8.90583 665 ft 96 kts 61°
2026-04-23 08:00 52.71720 -8.89872 912 ft 124 kts 36°
2026-04-23 08:01 52.72552 -8.89289 1181 ft 132 kts 33°
2026-04-23 08:01 52.73445 -8.88747 1316 ft 145 kts 23°
2026-04-23 08:01 52.74487 -8.88849 1522 ft 154 kts 356°
2026-04-23 08:01 52.75567 -8.89228 1626 ft 160 kts 356°
2026-04-23 08:02 52.76685 -8.89694 1743 ft 167 kts 348°
2026-04-23 08:02 52.77832 -8.90431 1769 ft 177 kts 344°
2026-04-23 08:02 52.79049 -8.91078 1874 ft 171 kts
2026-04-23 08:02 52.80162 -8.90867 2114 ft 153 kts 26°
2026-04-23 08:03 52.81144 -8.90305 2256 ft 150 kts 32°
2026-04-23 08:03 52.82111 -8.89679 2305 ft 151 kts 33°
2026-04-23 08:03 52.83087 -8.88983 2301 ft 151 kts 41°
2026-04-23 08:03 52.83942 -8.87965 2322 ft 146 kts 52°
2026-04-23 08:04 52.84709 -8.86872 2316 ft 147 kts 53°
2026-04-23 08:04 52.85450 -8.85689 2325 ft 147 kts 56°
2026-04-23 08:04 52.86208 -8.84562 2368 ft 148 kts 52°
2026-04-23 08:04 52.86995 -8.83397 2349 ft 150 kts 54°
2026-04-23 08:05 52.87752 -8.82211 2418 ft 146 kts 57°
2026-04-23 08:05 52.88475 -8.80954 2400 ft 147 kts 60°
2026-04-23 08:05 52.89185 -8.79675 2438 ft 147 kts 58°
2026-04-23 08:05 52.89879 -8.78392 2474 ft 144 kts 62°
2026-04-23 08:06 52.90532 -8.77064 2488 ft 145 kts 62°
2026-04-23 08:06 52.91184 -8.75694 2483 ft 145 kts 64°
2026-04-23 08:06 52.91805 -8.74299 2476 ft 146 kts 65°
2026-04-23 08:06 52.92432 -8.72910 2516 ft 145 kts 64°
2026-04-23 08:07 52.93061 -8.71546 2517 ft 146 kts 64°
2026-04-23 08:07 52.93676 -8.70109 2506 ft 146 kts 67°
2026-04-23 08:07 52.94265 -8.68625 2533 ft 146 kts 67°
2026-04-23 08:07 52.94825 -8.67147 2503 ft 146 kts 71°
2026-04-23 08:08 52.95351 -8.65574 2438 ft 146 kts 71°
2026-04-23 08:08 52.95879 -8.64022 2416 ft 146 kts 71°
2026-04-23 08:08 52.96464 -8.62381 2284 ft 157 kts 69°
2026-04-23 08:08 52.97089 -8.60689 2262 ft 159 kts 66°
2026-04-23 08:09 52.97756 -8.59032 2326 ft 157 kts 66°
2026-04-23 08:09 52.98431 -8.57358 2334 ft 159 kts 66°
2026-04-23 08:09 52.99157 -8.55753 2379 ft 158 kts 60°
2026-04-23 08:09 52.99860 -8.54085 2289 ft 159 kts 70°
2026-04-23 08:10 53.00444 -8.52335 2291 ft 157 kts 68°
2026-04-23 08:10 53.01075 -8.50697 2308 ft 156 kts 68°
2026-04-23 08:10 53.02309 -8.47391 2284 ft 155 kts 69°
2026-04-23 08:11 53.02913 -8.45767 2265 ft 158 kts 66°
2026-04-23 08:11 53.03540 -8.44184 2353 ft 151 kts 67°
2026-04-23 08:11 53.04079 -8.42775 2624 ft 138 kts 68°
2026-04-23 08:11 53.04628 -8.41435 2741 ft 138 kts 67°
2026-04-23 08:12 53.05193 -8.40130 2963 ft 132 kts 65°
2026-04-23 08:12 53.05789 -8.38831 3031 ft 139 kts 65°
2026-04-23 08:12 53.06381 -8.37524 3183 ft 137 kts 64°
2026-04-23 08:12 53.06972 -8.36277 3324 ft 138 kts 63°
2026-04-23 08:13 53.07639 -8.35019 3400 ft 144 kts 58°
2026-04-23 08:13 53.08372 -8.33840 3589 ft 141 kts 55°
2026-04-23 08:13 53.09124 -8.32712 3673 ft 146 kts 54°
2026-04-23 08:13 53.09900 -8.31596 3795 ft 147 kts 51°
2026-04-23 08:14 53.10687 -8.30540 3933 ft 146 kts 50°
2026-04-23 08:14 53.11536 -8.29455 4008 ft 150 kts 47°
2026-04-23 08:14 53.12393 -8.28439 4144 ft 148 kts 46°
2026-04-23 08:14 53.13275 -8.27473 4265 ft 153 kts 42°
2026-04-23 08:15 53.14180 -8.26569 4517 ft 149 kts 41°
2026-04-23 08:15 53.15092 -8.25643 4656 ft 153 kts 42°
2026-04-23 08:15 53.15984 -8.24688 4841 ft 152 kts 43°
2026-04-23 08:15 53.16878 -8.23735 5050 ft 151 kts 43°
2026-04-23 08:16 53.17777 -8.22735 5183 ft 154 kts 44°
2026-04-23 08:16 53.18663 -8.21705 5382 ft 151 kts 46°
2026-04-23 08:16 53.19502 -8.20642 5470 ft 151 kts 48°
2026-04-23 08:16 53.20361 -8.19494 5498 ft 153 kts 49°
2026-04-23 08:17 53.21195 -8.18304 5531 ft 153 kts 51°
2026-04-23 08:17 53.22044 -8.17079 5550 ft 156 kts 49°
2026-04-23 08:17 53.22936 -8.15925 5573 ft 158 kts 47°
2026-04-23 08:17 53.23832 -8.14772 5589 ft 159 kts 47°
2026-04-23 08:18 53.24710 -8.13560 5607 ft 158 kts 51°
2026-04-23 08:18 53.25510 -8.12244 5626 ft 158 kts 53°
2026-04-23 08:18 53.26307 -8.10944 5636 ft 159 kts 53°
2026-04-23 08:18 53.27135 -8.09592 5634 ft 161 kts 53°
2026-04-23 08:19 53.27952 -8.08299 5644 ft 161 kts 53°
2026-04-23 08:19 53.28780 -8.07006 5621 ft 165 kts 49°
2026-04-23 08:19 53.29753 -8.05919 5634 ft 169 kts 37°
2026-04-23 08:19 53.30814 -8.04971 5628 ft 169 kts 37°
2026-04-23 08:20 53.31856 -8.03940 5619 ft 168 kts 41°
2026-04-23 08:20 53.32822 -8.02752 5623 ft 165 kts 50°
2026-04-23 08:20 53.33727 -8.01503 5620 ft 166 kts 46°
2026-04-23 08:20 53.34723 -8.00375 5620 ft 169 kts 39°
2026-04-23 08:21 53.35857 -7.99351 5623 ft 171 kts 34°
2026-04-23 08:21 53.36978 -7.98449 5630 ft 171 kts 33°
2026-04-23 08:21 53.38131 -7.97550 5626 ft 172 kts 32°
2026-04-23 08:21 53.39293 -7.96688 5631 ft 172 kts 32°
2026-04-23 08:22 53.40461 -7.95803 5632 ft 171 kts 33°
2026-04-23 08:22 53.41563 -7.94869 5640 ft 170 kts 35°
2026-04-23 08:22 53.42674 -7.93863 5642 ft 169 kts 37°
2026-04-23 08:22 53.43758 -7.92766 5641 ft 167 kts 42°
2026-04-23 08:23 53.44751 -7.91646 5651 ft 167 kts 41°
2026-04-23 08:23 53.45768 -7.90586 5643 ft 169 kts 39°
2026-04-23 08:23 53.46818 -7.89569 5654 ft 169 kts 37°
2026-04-23 08:23 53.47870 -7.88607 5631 ft 171 kts 36°
2026-04-23 08:24 53.48967 -7.87667 5623 ft 172 kts 34°
2026-04-23 08:24 53.50077 -7.86781 5629 ft 172 kts 32°
2026-04-23 08:24 53.51188 -7.85953 5621 ft 173 kts 30°
2026-04-23 08:24 53.52347 -7.85132 5619 ft 173 kts 30°
2026-04-23 08:25 53.53487 -7.84331 5618 ft 173 kts 30°
2026-04-23 08:25 53.54646 -7.83512 5613 ft 173 kts 31°
2026-04-23 08:25 53.55816 -7.82677 5620 ft 173 kts 31°
2026-04-23 08:25 53.57000 -7.81842 5628 ft 172 kts 30°
2026-04-23 08:26 53.58201 -7.80995 5627 ft 173 kts 31°
2026-04-23 08:26 53.59446 -7.80300 5609 ft 177 kts 21°
2026-04-23 08:26 53.60797 -7.79897 5626 ft 179 kts 12°
2026-04-23 08:26 53.62161 -7.79779 5621 ft 181 kts
2026-04-23 08:27 53.63472 -7.79709 5616 ft 181 kts
2026-04-23 08:27 53.64795 -7.79681 5631 ft 180 kts
2026-04-23 08:27 53.66130 -7.79698 5624 ft 181 kts
2026-04-23 08:27 53.67513 -7.79790 5625 ft 182 kts
2026-04-23 08:28 53.68853 -7.79922 5634 ft 181 kts
2026-04-23 08:28 53.70224 -7.80065 5604 ft 184 kts
2026-04-23 08:28 53.71549 -7.80220 5621 ft 182 kts
2026-04-23 08:28 53.72879 -7.80418 5608 ft 184 kts 359°
2026-04-23 08:29 53.74237 -7.80678 5624 ft 183 kts 358°
2026-04-23 08:29 53.75579 -7.80951 5626 ft 183 kts 356°
2026-04-23 08:29 53.76910 -7.81264 5630 ft 183 kts 355°
2026-04-23 08:29 53.78227 -7.81601 5643 ft 183 kts 355°
2026-04-23 08:30 53.79534 -7.81972 5631 ft 184 kts 353°
2026-04-23 08:30 53.80872 -7.82390 5647 ft 183 kts 352°
2026-04-23 08:30 53.82194 -7.82856 5645 ft 184 kts 351°
2026-04-23 08:30 53.83503 -7.83376 5651 ft 184 kts 350°
2026-04-23 08:31 53.84815 -7.83871 5650 ft 184 kts 351°
2026-04-23 08:31 53.86155 -7.84366 5654 ft 184 kts 351°
2026-04-23 08:31 53.87489 -7.84850 5660 ft 184 kts 351°
2026-04-23 08:31 53.88801 -7.85342 5656 ft 185 kts 350°
2026-04-23 08:32 53.90098 -7.85866 5671 ft 184 kts 349°
2026-04-23 08:32 53.91409 -7.86448 5664 ft 185 kts 347°
2026-04-23 08:32 53.92677 -7.87091 5682 ft 185 kts 345°
2026-04-23 08:32 53.93938 -7.87773 5683 ft 185 kts 344°
2026-04-23 08:33 53.95207 -7.88487 5656 ft 187 kts 343°
2026-04-23 08:33 53.96482 -7.89221 5673 ft 186 kts 343°
2026-04-23 08:33 53.97754 -7.89970 5669 ft 186 kts 343°
2026-04-23 08:33 53.99040 -7.90745 5686 ft 185 kts 342°
2026-04-23 08:34 54.00312 -7.91491 5681 ft 186 kts 345°
2026-04-23 08:34 54.01622 -7.92169 5670 ft 186 kts 347°
2026-04-23 08:34 54.02920 -7.92773 5694 ft 185 kts 348°
2026-04-23 08:34 54.04243 -7.93318 5667 ft 186 kts 351°
2026-04-23 08:35 54.05575 -7.93780 5670 ft 185 kts 352°
2026-04-23 08:35 54.06918 -7.94204 5673 ft 185 kts 353°
2026-04-23 08:35 54.08235 -7.94574 5666 ft 185 kts 354°
2026-04-23 08:35 54.09581 -7.94928 5677 ft 184 kts 355°
2026-04-23 08:36 54.10919 -7.95245 5683 ft 184 kts 356°
2026-04-23 08:36 54.12231 -7.95540 5679 ft 183 kts 356°
2026-04-23 08:36 54.13551 -7.95829 5651 ft 184 kts 357°
2026-04-23 08:36 54.14885 -7.96081 5635 ft 184 kts 358°
2026-04-23 08:37 54.16202 -7.96304 5631 ft 183 kts 358°
2026-04-23 08:37 54.17555 -7.96534 5603 ft 185 kts 358°
2026-04-23 08:37 54.18884 -7.96786 5607 ft 184 kts 357°
2026-04-23 08:37 54.20227 -7.97063 5592 ft 184 kts 356°
2026-04-23 08:38 54.21581 -7.97387 5587 ft 184 kts 355°
2026-04-23 08:38 54.22907 -7.97774 5571 ft 185 kts 352°
2026-04-23 08:38 54.24240 -7.98240 5534 ft 186 kts 351°
2026-04-23 08:38 54.25582 -7.98746 5532 ft 186 kts 350°
2026-04-23 08:39 54.26921 -7.99287 5502 ft 187 kts 349°
2026-04-23 08:39 54.28278 -7.99890 5505 ft 187 kts 348°
2026-04-23 08:39 54.29607 -8.00534 5529 ft 185 kts 346°
2026-04-23 08:39 54.30953 -8.01272 5505 ft 186 kts 343°
2026-04-23 08:40 54.32301 -8.02079 5523 ft 185 kts 342°
2026-04-23 08:40 54.33582 -8.02916 5516 ft 185 kts 340°
2026-04-23 08:40 54.34892 -8.03764 5516 ft 184 kts 341°
2026-04-23 08:40 54.36206 -8.04596 5500 ft 185 kts 341°
2026-04-23 08:41 54.37492 -8.05434 5503 ft 184 kts 340°
2026-04-23 08:41 54.38752 -8.06336 5493 ft 185 kts 337°
2026-04-23 08:41 54.39977 -8.07326 5478 ft 186 kts 334°
2026-04-23 08:41 54.41193 -8.08414 5454 ft 187 kts 333°
2026-04-23 08:42 54.42411 -8.09545 5311 ft 189 kts 333°
2026-04-23 08:42 54.43670 -8.10729 5138 ft 192 kts 331°
2026-04-23 08:42 54.44888 -8.11954 5083 ft 188 kts 329°
2026-04-23 08:42 54.46085 -8.13250 4886 ft 193 kts 327°
2026-04-23 08:43 54.47246 -8.14582 4813 ft 189 kts 325°
2026-04-23 08:43 54.48360 -8.15985 4718 ft 188 kts 321°
2026-04-23 08:43 54.49435 -8.17508 4561 ft 191 kts 318°
2026-04-23 08:43 54.50485 -8.19123 4481 ft 189 kts 316°
2026-04-23 08:44 54.51481 -8.20752 4364 ft 189 kts 314°
2026-04-23 08:44 54.52472 -8.22498 4241 ft 189 kts 311°
2026-04-23 08:44 54.53414 -8.24312 4152 ft 188 kts 309°
2026-04-23 08:44 54.54283 -8.26199 4036 ft 188 kts 303°
2026-04-23 08:45 54.55093 -8.28147 3931 ft 188 kts 302°
2026-04-23 08:45 54.55873 -8.30123 3838 ft 186 kts 300°
2026-04-23 08:45 54.56626 -8.32114 3639 ft 190 kts 300°
2026-04-23 08:45 54.57369 -8.34167 3532 ft 187 kts 297°
2026-04-23 08:46 54.58062 -8.36259 3385 ft 187 kts 294°
2026-04-23 08:46 54.58690 -8.38368 3213 ft 188 kts 292°
2026-04-23 08:46 54.59298 -8.40509 3105 ft 186 kts 291°
2026-04-23 08:46 54.59845 -8.42695 2956 ft 186 kts 286°
2026-04-23 08:47 54.60274 -8.44881 2826 ft 184 kts 284°
2026-04-23 08:47 54.60776 -8.47069 2712 ft 185 kts 291°
2026-04-23 08:47 54.61386 -8.49149 2571 ft 186 kts 296°
2026-04-23 08:47 54.62109 -8.51165 2446 ft 186 kts 302°
2026-04-23 08:48 54.62880 -8.53042 2348 ft 186 kts 305°
2026-04-23 08:48 54.63679 -8.54887 2337 ft 183 kts 306°
2026-04-23 08:48 54.64429 -8.56725 2264 ft 184 kts 300°
2026-04-23 08:48 54.65210 -8.58552 2225 ft 183 kts 312°
2026-04-23 08:49 54.66262 -8.60018 2101 ft 188 kts 335°
2026-04-23 08:49 54.67549 -8.60572 2031 ft 178 kts
2026-04-23 08:49 54.68766 -8.60212 2103 ft 162 kts 28°
2026-04-23 08:49 54.69840 -8.59408 1996 ft 163 kts 35°
2026-04-23 08:50 54.70893 -8.58558 1981 ft 161 kts 33°
2026-04-23 08:50 54.71961 -8.57770 1977 ft 160 kts 33°
2026-04-23 08:50 54.73000 -8.56995 1986 ft 161 kts 31°
2026-04-23 08:50 54.74061 -8.56334 2048 ft 161 kts 26°
2026-04-23 08:51 54.75151 -8.55724 2038 ft 162 kts 27°
2026-04-23 08:51 54.76284 -8.55237 2048 ft 172 kts
2026-04-23 08:51 54.77475 -8.55224 2081 ft 167 kts
2026-04-23 08:51 54.78662 -8.55225 1983 ft 172 kts
2026-04-23 08:52 54.79874 -8.55221 2007 ft 167 kts
2026-04-23 08:52 54.81093 -8.55238 1958 ft 171 kts
2026-04-23 08:52 54.82289 -8.55222 1933 ft 168 kts 12°
2026-04-23 08:52 54.83451 -8.54847 1921 ft 164 kts 23°
2026-04-23 08:53 54.84546 -8.54164 1895 ft 162 kts 30°
2026-04-23 08:53 54.85596 -8.53386 1883 ft 161 kts 33°
2026-04-23 08:53 54.86628 -8.52569 1895 ft 159 kts 33°
2026-04-23 08:53 54.87694 -8.51866 1869 ft 163 kts 26°
2026-04-23 08:54 54.88808 -8.51308 1860 ft 163 kts 24°
2026-04-23 08:54 54.89925 -8.50748 1868 ft 161 kts 25°
2026-04-23 08:54 54.91005 -8.50132 1847 ft 161 kts 28°
2026-04-23 08:54 54.92075 -8.49449 1863 ft 159 kts 28°
2026-04-23 08:55 54.93138 -8.48779 1868 ft 159 kts 28°
2026-04-23 08:55 54.94215 -8.48090 1873 ft 160 kts 28°
2026-04-23 08:55 54.95271 -8.47441 1892 ft 159 kts 27°
2026-04-23 08:55 54.96332 -8.46814 1875 ft 162 kts 25°
2026-04-23 08:56 54.97434 -8.46248 1893 ft 161 kts 27°
2026-04-23 08:56 54.98450 -8.45497 1905 ft 158 kts 36°
2026-04-23 08:56 54.99369 -8.44375 1776 ft 160 kts 51°
2026-04-23 08:56 55.00217 -8.43027 1672 ft 159 kts 54°
2026-04-23 08:57 55.00991 -8.41618 1533 ft 160 kts 57°
2026-04-23 08:57 55.01762 -8.40182 1404 ft 163 kts 49°
2026-04-23 08:57 55.02763 -8.39115 1213 ft 173 kts 31°
2026-04-23 08:57 55.04001 -8.38491 1078 ft 175 kts 18°
2026-04-23 08:58 55.05177 -8.38058 1143 ft 163 kts 19°
2026-04-23 08:58 55.06339 -8.37622 1044 ft 166 kts 18°
2026-04-23 08:58 55.07480 -8.37244 1010 ft 159 kts 19°
2026-04-23 08:58 55.08545 -8.36787 980 ft 152 kts 25°
2026-04-23 08:59 55.09245 -8.35594 820 ft 134 kts 85°
2026-04-23 08:59 55.09155 -8.33999 846 ft 120 kts 104°
2026-04-23 08:59 55.08803 -8.32776 817 ft 103 kts 143°
2026-04-23 08:59 55.08137 -8.32297 750 ft 97 kts 161°
2026-04-23 09:00 55.07397 -8.32253 571 ft 106 kts 181°
2026-04-23 09:00 55.06673 -8.32711 458 ft 104 kts 195°
2026-04-23 09:00 55.05999 -8.33112 351 ft 98 kts 187°
2026-04-23 09:00 55.05317 -8.33531 157 ft 105 kts 192°
2026-04-23 09:01 55.04629 -8.33964 12 ft 97 kts 194°
2026-04-23 09:01 55.04087 -8.34298 7 ft 54 kts 217°
2026-04-23 09:01 55.03898 -8.34418 7 ft 15 kts 141°
2026-04-23 09:01 55.03876 -8.34294 6 ft 6 kts 78°
2026-04-23 09:02 55.03874 -8.34222 4 ft 4 kts 160°
2026-04-23 09:02 55.03852 -8.34230 4 ft 1 kts 201°
2026-04-23 09:02 55.03847 -8.34256 5 ft 4 kts 292°
2026-04-23 09:02 55.03849 -8.34269 5 ft 0 kts 289°